CW5834 Weather Reports


Display with metric or nautical units.
time (UTC)temp
F
wind
direction
speed
MPH
gust
MPH
rain 1hr
in
rain 24hr
in
rain mn
in
humidity
%
barometer
mb
20260903080015 71 0.0 1.0 0.00 0.00 0.00 94 1020.1
20260903075015 71 0.0 2.0 0.00 0.00 0.00 93 1020.2
20260903074016 72 0.0 2.0 0.00 0.00 0.00 93 1020.2
20260903073016 72 0.0 1.0 0.00 0.00 0.00 93 1020.1
20260903072015 72 0 1.0 2.0 0.00 0.00 0.00 93 1020.0
20260903071016 72 0.0 0.0 0.00 0.00 0.00 93 1020.0
20260903070015 72 23 1.0 2.0 0.00 0.00 0.00 93 1020.0
20260903065036 72 23 1.0 1.0 0.00 0.00 0.00 93 1020.0
20260903064016 72 0.0 2.0 0.00 0.00 0.00 93 1020.2
20260903063015 72 0.0 1.0 0.00 0.00 0.00 93 1020.0
20260903062017 72 0.0 0.0 0.00 0.00 0.00 92 1020.2
20260903061017 73 0.0 2.0 0.00 0.00 0.00 92 1020.3
20260903060018 73 0.0 2.0 0.00 0.00 0.00 92 1020.2
20260903055017 73 0 1.0 2.0 0.00 0.00 0.00 92 1020.3
20260903054017 73 0 1.0 1.0 0.00 0.00 0.00 92 1020.2
20260903053118 73 338 1.0 1.0 0.00 0.00 0.00 92 1020.3
20260903052037 73 0.0 2.0 0.00 0.00 0.00 92 1020.4
20260903051018 73 0.0 1.0 0.00 0.00 0.00 92 1020.4
20260903050017 73 0.0 2.0 0.00 0.00 0.00 92 1020.4
20260903045015 73 0.0 2.0 0.00 0.00 0.00 91 1020.5
20260903044037 73 0.0 1.0 0.00 0.00 0.00 92 1020.5
20260903043017 73 0.0 1.0 0.00 0.00 0.00 92 1020.5
20260903042021 73 0.0 2.0 0.00 0.00 0.00 92 1020.5
20260903041017 73 0.0 2.0 0.00 0.00 0.00 91 1020.5
20260903040017 73 0.0 0.0 0.00 0.00 0.00 91 1020.4
20260903035016 73 0.0 2.0 0.00 0.00 0.00 91 1020.5
20260903034016 73 0.0 0.0 0.00 0.00 0.00 91 1020.5
20260903033016 74 0.0 0.0 0.00 0.00 0.00 91 1020.3
20260903032056 74 315 1.0 2.0 0.00 0.00 0.00 91 1020.5
20260903031016 74 0.0 0.0 0.00 0.00 0.00 90 1020.4
20260903030016 74 315 1.0 1.0 0.00 0.00 0.00 90 1020.4
20260903025016 74 0.0 2.0 0.00 0.00 0.00 90 1020.4
20260903024017 75 0.0 1.0 0.00 0.00 0.00 90 1020.4
20260903023036 75 0.0 2.0 0.00 0.00 0.00 90 1020.2
20260903022016 75 0.0 1.0 0.00 0.00 0.00 90 1020.4
20260903021016 75 0.0 2.0 0.00 0.00 0.00 90 1020.5
20260903020016 75 0.0 1.0 0.00 0.00 0.00 90 1020.2
20260903015016 76 0.0 1.0 0.00 0.00 0.00 89 1020.1
20260903014016 76 0.0 2.0 0.00 0.00 0.00 89 1020.1
20260903013016 76 0.0 0.0 0.00 0.00 0.00 88 1020.0
20260903012016 77 0.0 0.0 0.00 0.00 0.00 88 1019.9
20260903011016 77 0.0 0.0 0.00 0.00 0.00 87 1019.7
20260903010019 77 0.0 2.0 0.00 0.00 0.00 86 1019.5
20260903005015 78 0.0 2.0 0.00 0.00 0.00 85 1019.4
20260903004016 78 0.0 1.0 0.00 0.00 0.00 83 1019.4
20260903003015 79 0.0 0.0 0.00 0.00 0.00 82 1019.1
20260903002016 79 0.0 2.0 0.00 0.00 0.00 81 1019.1
20260903001016 80 0 1.0 1.0 0.00 0.00 0.00 80 1019.1
20260903000056 81 0.0 2.0 0.00 0.00 0.00 78 1019.2
20260902235015 82 0.0 1.0 0.00 0.00 0.00 76 1019.2
20260902234016 83 0.0 0.0 0.00 0.00 0.00 74 1019.3
20260902233056 84 0.0 2.0 0.00 0.00 0.00 75 1019.4
20260902232016 85 338 1.0 1.0 0.00 0.00 0.00 73 1019.6
20260902231015 87 315 1.0 1.0 0.00 0.00 0.00 70 1019.6
20260902230015 88 315 1.0 1.0 0.00 0.00 0.00 68 1019.7
20260902225015 89 315 1.0 1.0 0.00 0.00 0.00 66 1019.6
20260902224015 89 315 1.0 1.0 0.00 0.00 0.00 67 1019.5
20260902223015 91 315 1.0 1.0 0.00 0.00 0.00 63 1019.8
20260902222017 92 315 1.0 1.0 0.00 0.00 0.00 61 1019.8
20260902221015 93 315 1.0 2.0 0.00 0.00 0.00 56 1020.0
20260902220017 94 338 1.0 1.0 0.00 0.00 0.00 55 1020.1
20260902215018 94 0 1.0 2.0 0.00 0.00 0.00 54 1020.0
20260902214017 94 23 1.0 2.0 0.00 0.00 0.00 49 1020.0
20260902213018 94 0.0 1.0 0.00 0.00 0.00 52 1020.0
20260902212037 94 0 1.0 3.0 0.00 0.00 0.00 49 1020.1
20260902211037 94 293 1.0 2.0 0.00 0.00 0.00 54 1020.3
20260902210037 94 315 1.0 3.0 0.00 0.00 0.00 49 1020.1
20260902205017 94 0 2.0 3.0 0.00 0.00 0.00 49 1020.1
20260902204017 93 45 2.0 3.0 0.00 0.00 0.00 53 1020.3
20260902203017 94 293 1.0 2.0 0.00 0.00 0.00 49 1020.4
20260902202017 94 293 1.0 2.0 0.00 0.00 0.00 48 1020.6
20260902201017 94 0.0 2.0 0.00 0.00 0.00 49 1020.6
20260902200017 94 0 1.0 3.0 0.00 0.00 0.00 47 1020.8
20260902195017 93 338 2.0 5.0 0.00 0.00 0.00 49 1020.8
20260902194017 93 225 1.0 3.0 0.00 0.00 0.00 47 1021.0
20260902193057 93 0 1.0 4.0 0.00 0.00 0.00 53 1021.2
20260902192017 92 45 1.0 2.0 0.00 0.00 0.00 48 1021.2
20260902191017 92 45 2.0 4.0 0.00 0.00 0.00 51 1021.4
20260902190017 92 0 2.0 4.0 0.00 0.00 0.00 54 1021.4
20260902185017 92 293 1.0 4.0 0.00 0.00 0.00 53 1021.5
20260902184017 92 315 3.0 4.0 0.00 0.00 0.00 55 1021.6
20260902183017 92 338 3.0 5.0 0.00 0.00 0.00 53 1021.7
20260902182017 92 225 1.0 4.0 0.00 0.00 0.00 55 1021.7
20260902181037 92 315 3.0 5.0 0.00 0.00 0.00 58 1021.7
20260902180017 91 23 2.0 5.0 0.00 0.00 0.00 55 1021.8
20260902175021 91 23 2.0 3.0 0.00 0.00 0.00 56 1021.9
20260902174017 90 113 2.0 4.0 0.00 0.00 0.00 58 1021.9
20260902173037 90 0 1.0 3.0 0.00 0.00 0.00 55 1022.0
20260902172017 90 23 2.0 5.0 0.00 0.00 0.00 58 1022.2
20260902171017 90 338 2.0 5.0 0.00 0.00 0.00 64 1022.4
20260902170037 89 23 1.0 3.0 0.00 0.00 0.00 62 1022.5
20260902165017 90 315 1.0 3.0 0.00 0.00 0.00 61 1022.6
20260902164037 90 293 3.0 4.0 0.00 0.00 0.00 60 1022.7
20260902163017 90 315 1.0 2.0 0.00 0.00 0.00 61 1022.8
20260902162017 89 0.0 2.0 0.00 0.00 0.00 63 1023.0
20260902161017 89 0 1.0 3.0 0.00 0.00 0.00 64 1023.1
20260902160037 88 203 1.0 3.0 0.00 0.00 0.00 62 1023.0
20260902155016 88 45 1.0 3.0 0.00 0.00 0.00 67 1023.0
20260902154057 87 180 1.0 3.0 0.00 0.00 0.00 64 1023.0
20260902153017 87 203 1.0 4.0 0.00 0.00 0.00 63 1023.0
20260902152017 88 158 1.0 3.0 0.00 0.00 0.00 66 1023.0
20260902151037 87 90 1.0 2.0 0.00 0.00 0.00 72 1022.9
20260902150016 86 90 1.0 2.0 0.00 0.00 0.00 71 1022.8
20260902145017 85 248 1.0 2.0 0.00 0.00 0.00 73 1022.8
20260902144016 85 338 1.0 2.0 0.00 0.00 0.00 75 1022.7
20260902143016 84 0 1.0 2.0 0.00 0.00 0.00 75 1022.8
20260902142036 83 0.0 2.0 0.00 0.00 0.00 76 1022.6
20260902141016 83 45 1.0 2.0 0.00 0.00 0.00 79 1022.6
20260902140016 82 90 1.0 2.0 0.00 0.00 0.00 82 1022.6
20260902135016 80 0 1.0 2.0 0.00 0.00 0.00 83 1022.6
20260902134016 80 315 1.0 3.0 0.00 0.00 0.00 84 1022.6
20260902133016 79 135 1.0 2.0 0.00 0.00 0.00 84 1022.6
20260902132022 78 315 1.0 2.0 0.00 0.00 0.00 88 1022.7
20260902131016 77 0.0 2.0 0.00 0.00 0.00 88 1022.8
20260902130016 75 0.0 2.0 0.00 0.00 0.00 91 1022.6
20260902125016 74 113 1.0 2.0 0.00 0.00 0.00 92 1022.4
20260902124016 73 0.0 2.0 0.00 0.00 0.00 93 1022.5
20260902123016 72 0.0 2.0 0.00 0.00 0.00 94 1022.6
20260902122016 72 0.0 2.0 0.00 0.00 0.00 94 1022.5
20260902121016 71 0.0 2.0 0.00 0.00 0.00 96 1022.3
20260902120016 70 0.0 2.0 0.00 0.00 0.00 96 1022.3
20260902115036 69 0.0 2.0 0.00 0.00 0.00 95 1022.1
20260902114016 69 0.0 2.0 0.00 0.00 0.00 95 1022.1
20260902113016 69 0.0 1.0 0.00 0.00 0.00 95 1022.1
20260902112016 69 0.0 0.0 0.00 0.00 0.00 95 1021.8
20260902111016 69 0.0 2.0 0.00 0.00 0.00 95 1021.7
20260902110016 69 0.0 1.0 0.00 0.00 0.00 95 1021.7
20260902105036 69 0.0 2.0 0.00 0.00 0.00 95 1021.6
20260902104016 69 0.0 2.0 0.00 0.00 0.00 95 1021.6
20260902103016 69 0.0 0.0 0.00 0.00 0.00 95 1021.6
20260902102016 69 0.0 1.0 0.00 0.00 0.00 95 1021.5
20260902101016 69 0.0 2.0 0.00 0.00 0.00 94 1021.5
20260902100016 69 0.0 1.0 0.00 0.00 0.00 95 1021.3
20260902095016 70 0.0 2.0 0.00 0.00 0.00 95 1021.3
20260902094015 70 0.0 2.0 0.00 0.00 0.00 95 1021.2
20260902093016 70 0.0 1.0 0.00 0.00 0.00 95 1021.4
20260902092015 70 0.0 0.0 0.00 0.00 0.00 95 1021.2
20260902091016 70 0 1.0 2.0 0.00 0.00 0.00 95 1021.1
20260902090016 70 0.0 1.0 0.00 0.00 0.00 95 1021.2
20260902085015 70 0.0 1.0 0.00 0.00 0.00 94 1021.1
20260902084015 70 0 1.0 1.0 0.00 0.00 0.00 94 1021.0
20260902083015 70 0.0 2.0 0.00 0.00 0.00 94 1021.2
20260902082015 70 0.0 2.0 0.00 0.00 0.00 94 1021.1
20260902081016 70 0.0 2.0 0.00 0.00 0.00 94 1021.1